| time (UTC) | temp F | wind direction | speed MPH | gust MPH | rain 1hr in | rain 24hr in | rain mn in | humidity % | barometer mb |
| 20260903210002 | 84 | 307 | 0.0 | 5.0 | 0.01 | 0.03 | 0.02 | 67 | 1016.4 |
| 20260903204604 | 83 | 318 | 0.0 | 2.0 | 0.01 | 0.03 | 0.02 | 69 | 1016.6 |
| 20260903203059 | 83 | 265 | 0.0 | 8.0 | 0.00 | 0.02 | 0.01 | 69 | 1016.7 |
| 20260903201558 | 82 | 275 | 2.0 | 11.0 | 0.00 | 0.02 | 0.01 | 69 | 1016.9 |
| 20260903200058 | 82 | 271 | 2.0 | 9.0 | 0.00 | 0.02 | 0.01 | 70 | 1017.1 |
| 20260903194604 | 83 | 268 | 0.0 | 4.0 | 0.00 | 0.02 | 0.01 | 69 | 1016.9 |
| 20260903193100 | 82 | 317 | 0.0 | 2.0 | 0.00 | 0.02 | 0.01 | 69 | 1016.9 |
| 20260903191552 | 82 | 279 | 0.0 | 2.0 | 0.00 | 0.02 | 0.01 | 69 | 1017.1 |
| 20260903190052 | 82 | 284 | 0.0 | 5.0 | 0.00 | 0.02 | 0.01 | 71 | 1017.3 |
| 20260903184548 | 80 | 321 | 4.0 | 11.0 | 0.00 | 0.02 | 0.01 | 72 | 1017.7 |
| 20260903183047 | 81 | 289 | 2.0 | 8.0 | 0.00 | 0.02 | 0.01 | 72 | 1017.7 |
| 20260903181552 | 80 | 260 | 1.0 | 7.0 | 0.00 | 0.02 | 0.01 | 72 | 1017.7 |
| 20260903180057 | 80 | 255 | 0.0 | 8.0 | 0.00 | 0.02 | 0.01 | 72 | 1017.8 |
| 20260903174542 | 80 | 299 | 0.0 | 10.0 | 0.00 | 0.02 | 0.01 | 73 | 1017.9 |
| 20260903173040 | 79 | 252 | 2.0 | 8.0 | 0.00 | 0.02 | 0.01 | 73 | 1017.9 |
| 20260903171539 | 80 | 258 | 1.0 | 5.0 | 0.00 | 0.02 | 0.01 | 73 | 1018.1 |
| 20260903170107 | 79 | 278 | 1.0 | 4.0 | 0.00 | 0.02 | 0.01 | 75 | 1018.2 |
| 20260903164537 | 78 | 240 | 1.0 | 5.0 | 0.00 | 0.02 | 0.01 | 76 | 1018.2 |
| 20260903163039 | 78 | 360 | 2.0 | 9.0 | 0.00 | 0.02 | 0.01 | 74 | 1018.3 |
| 20260903161532 | 77 | 298 | 0.0 | 4.0 | 0.00 | 0.02 | 0.01 | 76 | 1018.6 |
| 20260903160040 | 77 | 261 | 0.0 | 3.0 | 0.00 | 0.02 | 0.01 | 76 | 1018.6 |
| 20260903154529 | 77 | 277 | 0.0 | 3.0 | 0.00 | 0.02 | 0.01 | 79 | 1018.8 |
| 20260903153027 | 76 | 225 | 0.0 | 3.0 | 0.00 | 0.02 | 0.01 | 80 | 1019.2 |
| 20260903151524 | 74 | 264 | 1.0 | 4.0 | 0.00 | 0.02 | 0.01 | 81 | 1019.1 |
| 20260903150022 | 73 | 261 | 0.0 | 4.0 | 0.00 | 0.02 | 0.01 | 83 | 1019.0 |
| 20260903144521 | 73 | 216 | 4.0 | 6.0 | 0.00 | 0.02 | 0.01 | 83 | 1019.0 |
| 20260903143017 | 72 | 224 | 3.0 | 5.0 | 0.00 | 0.02 | 0.01 | 83 | 1019.1 |
| 20260903141522 | 72 | 229 | 2.0 | 6.0 | 0.00 | 0.02 | 0.01 | 84 | 1019.1 |
| 20260903140015 | 72 | 242 | 3.0 | 9.0 | 0.00 | 0.02 | 0.01 | 84 | 1019.1 |
| 20260903134515 | 72 | 252 | 5.0 | 10.0 | 0.00 | 0.02 | 0.01 | 84 | 1019.0 |
| 20260903133014 | 72 | 248 | 5.0 | 9.0 | 0.00 | 0.02 | 0.01 | 87 | 1018.9 |
| 20260903131510 | 71 | 237 | 3.0 | 7.0 | 0.00 | 0.02 | 0.01 | 89 | 1018.8 |
| 20260903130007 | 70 | 235 | 1.0 | 3.0 | 0.00 | 0.02 | 0.01 | 90 | 1019.0 |
| 20260903124504 | 70 | 235 | 2.0 | 3.0 | 0.00 | 0.03 | 0.01 | 91 | 1019.0 |
| 20260903123001 | 69 | 196 | 1.0 | 4.0 | 0.00 | 0.03 | 0.01 | 91 | 1019.1 |
| 20260903121602 | 69 | 187 | 0.0 | 3.0 | 0.00 | 0.03 | 0.01 | 91 | 1018.8 |
| 20260903120100 | 68 | 186 | 0.0 | 1.0 | 0.00 | 0.03 | 0.01 | 91 | 1018.6 |
| 20260903114609 | 67 | 186 | 0.0 | 0.0 | 0.00 | 0.03 | 0.01 | 91 | 1018.6 |
| 20260903113107 | 67 | 186 | 0.0 | 1.0 | 0.00 | 0.03 | 0.01 | 91 | 1018.6 |
| 20260903111559 | 66 | 186 | 1.0 | 3.0 | 0.00 | 0.03 | 0.01 | 91 | 1018.2 |
| 20260903110105 | 67 | 186 | 1.0 | 3.0 | 0.00 | 0.03 | 0.01 | 91 | 1018.2 |
| 20260903104603 | 67 | 194 | 0.0 | 2.0 | 0.01 | 0.03 | 0.01 | 91 | 1018.2 |
| 20260903103057 | 67 | 194 | 1.0 | 4.0 | 0.01 | 0.03 | 0.01 | 91 | 1018.1 |
| 20260903101556 | 66 | 193 | 0.0 | 3.0 | 0.01 | 0.03 | 0.01 | 90 | 1018.3 |
| 20260903100055 | 66 | 193 | 0.0 | 2.0 | 0.01 | 0.03 | 0.01 | 91 | 1018.4 |
| 20260903094555 | 67 | 193 | 1.0 | 2.0 | 0.00 | 0.02 | 0.00 | 91 | 1018.6 |
| 20260903093100 | 66 | 193 | 0.0 | 1.0 | 0.00 | 0.02 | 0.00 | 90 | 1018.8 |
| 20260903091556 | 66 | 193 | 2.0 | 3.0 | 0.00 | 0.02 | 0.00 | 90 | 1018.7 |
| 20260903090053 | 66 | 193 | 0.0 | 2.0 | 0.00 | 0.02 | 0.00 | 90 | 1018.6 |
| 20260903084558 | 66 | 193 | 0.0 | 1.0 | 0.00 | 0.02 | 0.00 | 90 | 1018.6 |
| 20260903083052 | 66 | 193 | 0.0 | 1.0 | 0.00 | 0.02 | 0.00 | 90 | 1018.2 |
| 20260903081551 | 67 | 193 | 1.0 | 3.0 | 0.00 | 0.02 | 0.00 | 90 | 1018.5 |
| 20260903080050 | 67 | 193 | 1.0 | 4.0 | 0.00 | 0.02 | 0.00 | 90 | 1018.7 |
| 20260903074558 | 67 | 95 | 0.0 | 2.0 | 0.00 | 0.02 | 0.00 | 89 | 1018.6 |
| 20260903073057 | 67 | 95 | 0.0 | 2.0 | 0.00 | 0.02 | 0.00 | 89 | 1018.9 |
| 20260903071549 | 67 | 95 | 1.0 | 3.0 | 0.00 | 0.02 | 0.00 | 89 | 1018.7 |
| 20260903070046 | 67 | 95 | 0.0 | 3.0 | 0.00 | 0.02 | 0.00 | 89 | 1018.5 |
| 20260903064545 | 67 | 95 | 1.0 | 3.0 | 0.00 | 0.02 | 0.00 | 89 | 1019.0 |
| 20260903063044 | 67 | 94 | 2.0 | 3.0 | 0.00 | 0.02 | 0.00 | 88 | 1018.7 |
| 20260903061545 | 68 | 129 | 2.0 | 4.0 | 0.00 | 0.02 | 0.00 | 89 | 1018.8 |
| 20260903060141 | 68 | 191 | 5.0 | 11.0 | 0.00 | 0.02 | 0.00 | 89 | 1019.3 |
| 20260903054540 | 67 | 231 | 0.0 | 3.0 | 0.00 | 0.02 | 0.00 | 89 | 1019.1 |
| 20260903053039 | 67 | 231 | 1.0 | 6.0 | 0.00 | 0.02 | 0.00 | 89 | 1019.2 |
| 20260903051539 | 67 | 194 | 7.0 | 10.0 | 0.00 | 0.02 | 0.00 | 89 | 1019.2 |
| 20260903050037 | 68 | 224 | 4.0 | 10.0 | 0.00 | 0.02 | 0.00 | 89 | 1019.0 |
| 20260903044535 | 68 | 150 | 5.0 | 11.0 | 0.00 | 0.02 | 0.00 | 89 | 1019.3 |
| 20260903043032 | 68 | 209 | 4.0 | 7.0 | 0.00 | 0.02 | 0.00 | 89 | 1019.9 |
| 20260903041526 | 68 | 167 | 2.0 | 9.0 | 0.00 | 0.02 | 0.00 | 89 | 1021.1 |
| 20260903040022 | 69 | 253 | 3.0 | 10.0 | 0.00 | 0.02 | 0.00 | 89 | 1021.7 |
| 20260903034522 | 69 | 296 | 6.0 | 11.0 | 0.00 | 0.02 | 0.02 | 89 | 1021.0 |
| 20260903033032 | 70 | 181 | 3.0 | 8.0 | 0.00 | 0.02 | 0.02 | 89 | 1019.3 |
| 20260903031523 | 70 | 198 | 2.0 | 9.0 | 0.00 | 0.02 | 0.02 | 88 | 1019.7 |
| 20260903030027 | 70 | 222 | 3.0 | 8.0 | 0.00 | 0.02 | 0.02 | 88 | 1020.0 |
| 20260903024520 | 71 | 222 | 6.0 | 13.0 | 0.00 | 0.02 | 0.02 | 89 | 1021.0 |
| 20260903023020 | 70 | 215 | 6.0 | 11.0 | 0.00 | 0.02 | 0.02 | 89 | 1021.5 |
| 20260903021531 | 70 | 229 | 2.0 | 9.0 | 0.00 | 0.02 | 0.02 | 89 | 1021.2 |
| 20260903020018 | 71 | 334 | 12.0 | 17.0 | 0.00 | 0.02 | 0.02 | 88 | 1022.7 |
| 20260903014517 | 71 | 236 | 4.0 | 12.0 | 0.00 | 0.02 | 0.02 | 87 | 1020.0 |
| 20260903013019 | 72 | 185 | 5.0 | 6.0 | 0.00 | 0.02 | 0.02 | 86 | 1020.4 |
| 20260903011516 | 72 | 225 | 4.0 | 7.0 | 0.00 | 0.02 | 0.02 | 85 | 1020.5 |
| 20260903010016 | 72 | 207 | 1.0 | 7.0 | 0.00 | 0.02 | 0.02 | 85 | 1020.2 |
| 20260903004521 | 72 | 175 | 4.0 | 9.0 | 0.00 | 0.03 | 0.02 | 85 | 1019.5 |
| 20260903003015 | 72 | 36 | 4.0 | 11.0 | 0.00 | 0.03 | 0.02 | 84 | 1019.3 |
| 20260903001517 | 72 | 219 | 4.0 | 8.0 | 0.00 | 0.03 | 0.02 | 84 | 1019.6 |
| 20260903000014 | 73 | 185 | 4.0 | 10.0 | 0.00 | 0.03 | 0.02 | 84 | 1019.3 |
| 20260902234516 | 73 | 92 | 1.0 | 5.0 | 0.01 | 0.03 | 0.02 | 83 | 1020.0 |
| 20260902233013 | 73 | 218 | 1.0 | 10.0 | 0.01 | 0.03 | 0.02 | 83 | 1019.8 |
| 20260902231517 | 73 | 211 | 4.0 | 11.0 | 0.01 | 0.03 | 0.02 | 83 | 1019.7 |
| 20260902230013 | 73 | 144 | 6.0 | 12.0 | 0.01 | 0.03 | 0.02 | 83 | 1019.4 |
| 20260902224512 | 74 | 221 | 3.0 | 9.0 | 0.00 | 0.02 | 0.01 | 83 | 1019.3 |
| 20260902223013 | 74 | 254 | 4.0 | 11.0 | 0.00 | 0.02 | 0.01 | 83 | 1019.2 |
| 20260902221516 | 74 | 267 | 3.0 | 13.0 | 0.00 | 0.02 | 0.01 | 83 | 1019.4 |
| 20260902220008 | 74 | 219 | 2.0 | 9.0 | 0.00 | 0.02 | 0.01 | 84 | 1019.7 |
| 20260902214508 | 73 | 201 | 2.0 | 8.0 | 0.00 | 0.02 | 0.01 | 84 | 1020.1 |
| 20260902213008 | 73 | 141 | 3.0 | 10.0 | 0.00 | 0.02 | 0.01 | 84 | 1020.4 |
| 20260902211511 | 74 | 196 | 2.0 | 9.0 | 0.00 | 0.02 | 0.01 | 83 | 1020.1 |